Hourly Data Report for July 22, 2003

SHERBROOKE A
QUEBEC

45°26'00.000" N
71°41'00.000" W
241.40 m
7028124
71610
YSC

Download Data

Hourly Data (July 2003)
Hourly Data Report for July 22, 2003
TIME
LST
Temp Definition
°C
Dew Point Definition
°C
Rel Hum Definition
%
Precip. Amount Definition
mm

Wind Dir Definition
10's deg

Wind Spd Definition
km/h
Visibility Definition
km
Stn Press Definition
kPa
Hmdx Definition


Wind Chill Definition


Weather Definition


00:00 17.9 16.9 94   8 6 2.1 97.82     Moderate Rain
01:00 17.8 16.9 94   7 9 2.3 97.66     Rain
02:00 17.8 17.0 95   2 7 1.4 97.60     Rain
03:00 17.8 17.1 96   36 6 2.7 97.60     Drizzle
04:00 18.0 17.1 94     0 4.8 97.70      
05:00 18.0 17.1 94   23 9 4.0 97.78     Rain
06:00 18.1 17.0 93   20 6 15.0 97.81      
07:00 18.4 17.3 93   21 9 12.9 97.86     Rain
08:00 18.7 17.4 92     0 16.1 97.82     Rain
09:00 19.0 17.8 93   22 4 16.1 97.85     Rain
10:00 19.2 18.0 93   26 7 24.1 97.89     Rain Showers
11:00 20.3 17.9 86   25 11 24.1 97.90 26   Cloudy
12:00 21.2 18.0 82   23 7 24.1 97.93 27   Mostly Cloudy
13:00 22.1 18.3 79   27 9 24.1 97.95 28   Mostly Cloudy
14:00 23.2 19.0 77   28 9 24.1 97.94 30   Mostly Cloudy
15:00 24.0 18.0 69   26 9 24.1 97.98 30   Mostly Cloudy
16:00 23.2 18.1 73   30 7 24.1 97.99 29   Mostly Cloudy
17:00 22.6 18.7 79     0 15.0 98.03 29    
18:00 22.3 18.0 77   31 6 15.0 98.06 28    
19:00 21.6 18.4 82     0 15.0 98.12 28    
20:00 18.4 17.0 92     0 9.7 98.13      
21:00 16.8 15.6 93     0 9.7 98.13      
22:00 17.1 16.2 94   4 6 3.2 98.14      
23:00 18.1 17.1 94   5 4 9.7 98.12      

Notes on Data Quality.

Legend

  • E = Estimated
  • M = Missing
  • NA = Not Available*
  • [empty] = Indicates an unobserved value
Date modified: